Miscellaneous Local Product
Issued by NWS Hastings, NE

Home | Current Version | Previous Version | Text Only | Print | Product List | Glossary Off
Versions: 1 2 3 4 5 6 7 8 9 10 11 12 13 14 15 16 17 18 19 20 21 22 23 24 25 26 27 28 29 30 31 32 33 34 35 36 37 38 39 40 41 42 43 44 45 46 47 48 49 50

153
AXUS43 KGID 151602
MISGRI

GID CWA HOURLY WEATHER ROUNDUP
NATIONAL WEATHER SERVICE HASTINGS NE
1000 AM CST MON JAN 15 2018

NOTE: "FAIR" INDICATES FEW OR NO CLOUDS BELOW 12,000 FEET WITH NO
SIGNIFICANT WEATHER AND/OR OBSTRUCTIONS TO VISIBILITY.

...SOUTH CENTRAL NEBRASKA...

CITY           SKY/WX    TMP DP  RH WIND       PRES   REMARKS
GRAND ISLAND   MOSUNNY    2  -5  72 NW22G29   30.60R WCI -20
KEARNEY        NOT AVBL
HASTINGS       SUNNY      3  -5  69 N20       30.59R WCI -18
ORD            SUNNY      1  -7  68 NW24G36   30.59R WCI -22
YORK           MOSUNNY    5  -2  72 N13G28    30.58R WCI -12
AURORA         PTSUNNY    3  -4  70 NW20G26   30.59R WCI -18
LEXINGTON      SUNNY      5  -5  63 N17G25    30.60R WCI -14
HOLDREGE       MOSUNNY    5  -2  73 NW17G25   30.59R WCI -14
HEBRON         SUNNY      7  -2  67 NW18G24   30.60R WCI -12

...NEBRASKA PANHANDLE...

CITY           SKY/WX    TMP DP  RH WIND       PRES   REMARKS
CHADRON        CLOUDY     1  -7  68 N6        30.66R WCI -10
ALLIANCE       SUNNY     -1  -9  68 N17G24    30.53R WCI -22
SCOTTSBLUFF    SUNNY      9  -3  58 NW18      30.53R WCI -10
SIDNEY         SUNNY      6  -2  69 N9        30.49R WCI  -8

...WESTERN AND NORTH CENTRAL NEBRASKA...

CITY           SKY/WX    TMP DP  RH WIND       PRES   REMARKS
VALENTINE      CLOUDY    -3 -11  68 NW22G35   30.62R WCI -27
AINSWORTH      MOSUNNY   -3  -8  77 NW23      30.59R WCI -27
ONEILL         SUNNY     -2  -7  77 NW24G32   30.59R WCI -26
BROKEN BOW     MOSUNNY    0 -10  63 N21G32    30.57R WCI -22
IMPERIAL       SUNNY      9  -6  50 N20       30.57R WCI -10
NORTH PLATTE   SUNNY      4  -7  60 N18G25    30.59R WCI -16
MCCOOK         MOSUNNY   10  -1  61 N23       30.60R WCI -10

...EASTERN NEBRASKA...

CITY           SKY/WX    TMP DP  RH WIND       PRES   REMARKS
NORFOLK        MOSUNNY    0  -7  72 NW29G37   30.56R WCI -26
SO SIOUX CITY  FLURRIES   0  -9  65 NW25G38   30.56R WCI -24
TEKAMAH        MOSUNNY    2  -8  63 NW22G32   30.58R WCI -20
COLUMBUS       SUNNY      4  -5  66 NW22G32   30.59R WCI -18
ALBION         MOSUNNY    2  -5  71 NW21G26   30.58R WCI -19
OMAHA EPPLEY   MOSUNNY    3  -6  66 NW23G36   30.56R WCI -19
OFFUTT AFB     SUNNY      3  -8  60 NW22      30.56R WCI -19
MILLARD        PTSUNNY    5  -5  63 NW15G29   30.58R WCI -13
LINCOLN        PTSUNNY    5  -5  63 NW23G30   30.61R WCI -17
NEBRASKA CITY  MOSUNNY    5  -3  70 NW21      30.56R WCI -16
BEATRICE       PTSUNNY    7  -1  69 NW20      30.58R WCI -12
FALLS CITY     SUNNY      6  -5  60 NW23G36   30.56R WCI -15

...NORTHERN KANSAS...

CITY           SKY/WX    TMP DP  RH WIND       PRES   REMARKS
GOODLAND       CLOUDY    14  -2  49 N21       30.50R WCI  -4
HILL CITY      CLOUDY    12   2  64 N24G37    30.58R WCI  -8
NORTON         SUNNY     10   0  61 NW20G28   30.58  WCI  -8
PHILLIPSBURG   SUNNY     10   1  67 NW28G36   30.60S WCI -11
SMITH CENTER     N/A      9   1  72 N25G33    30.61R WCI -13
HAYS           CLOUDY    13   6  74 N16       30.58R WCI  -3
RUSSELL        CLOUDY   N/A N/A N/A N22       30.59R
CONCORDIA      PTSUNNY    8  -1  66 N16G26    30.61R WCI -10
SALINA         CLOUDY    13   6  74 N25       30.60R HAZE    WCI  -7
TOPEKA         CLOUDY    11   0  61 NW17G25   30.59R WCI  -6



USA.gov is the U.S. government's official web portal to all federal, state and local government web resources and services.